TimeEDT,TemperatureF,Dew PointF,Humidity,Sea Level PressureIn,VisibilityMPH,Wind Direction,Wind SpeedMPH,Gust SpeedMPH,PrecipitationIn,Events,Conditions,WindDirDegrees,DateUTC
12:15 AM,37.6,34.7,89,29.69,10.0,NNW,5.8,-,N/A,,Overcast,330,2013-11-02 04:15:00
12:35 AM,37.6,34.9,90,29.69,10.0,NNW,5.8,-,N/A,,Light Drizzle,330,2013-11-02 04:35:00
12:54 AM,37.6,35.2,91,29.69,10.0,NNW,4.6,-,N/A,Rain,Light Rain,330,2013-11-02 04:54:00
1:15 AM,37.6,35.4,92,29.70,10.0,NNW,4.6,-,N/A,,Overcast,330,2013-11-02 05:15:00
1:35 AM,37.4,35.6,93,29.70,10.0,NNW,4.6,-,N/A,,Overcast,330,2013-11-02 05:35:00
1:54 AM,37.4,35.2,92,29.71,10.0,NNW,4.6,-,N/A,,Overcast,330,2013-11-02 05:54:00
2:15 AM,36.9,35.1,93,29.72,10.0,NNW,5.8,-,N/A,,Mostly Cloudy,330,2013-11-02 06:15:00
2:35 AM,36.1,34.7,94,29.72,10.0,NNW,4.6,-,N/A,,Scattered Clouds,330,2013-11-02 06:35:00
2:55 AM,35.6,34.0,94,29.73,10.0,North,4.6,-,N/A,,Clear,350,2013-11-02 06:55:00
3:15 AM,34.9,33.4,94,29.73,10.0,North,4.6,-,N/A,,Scattered Clouds,350,2013-11-02 07:15:00
3:34 AM,34.9,33.4,94,29.74,10.0,North,5.8,-,N/A,,Scattered Clouds,350,2013-11-02 07:34:00
3:55 AM,33.8,32.5,95,29.75,10.0,NNW,3.5,-,N/A,,Scattered Clouds,330,2013-11-02 07:55:00
4:15 AM,33.4,32.4,96,29.75,10.0,NNW,4.6,-,N/A,,Scattered Clouds,340,2013-11-02 08:15:00
4:34 AM,33.8,32.7,96,29.75,10.0,North,4.6,-,N/A,,Scattered Clouds,350,2013-11-02 08:34:00
4:55 AM,33.4,32.2,95,29.77,10.0,North,3.5,-,N/A,,Scattered Clouds,10,2013-11-02 08:55:00
5:14 AM,33.1,32.0,96,29.77,10.0,North,4.6,-,N/A,,Scattered Clouds,350,2013-11-02 09:14:00
5:35 AM,32.5,32.0,98,29.78,10.0,NNW,4.6,-,N/A,,Clear,340,2013-11-02 09:35:00
5:54 AM,33.1,32.2,96,29.79,10.0,North,4.6,-,N/A,,Clear,360,2013-11-02 09:54:00
6:15 AM,32.9,32.0,96,29.80,10.0,North,4.6,-,N/A,,Scattered Clouds,10,2013-11-02 10:15:00
6:35 AM,32.9,32.0,96,29.81,10.0,North,5.8,-,N/A,,Mostly Cloudy,350,2013-11-02 10:35:00
6:54 AM,33.1,32.0,96,29.81,10.0,North,5.8,-,N/A,,Mostly Cloudy,350,2013-11-02 10:54:00
7:15 AM,33.6,32.0,94,29.82,10.0,North,5.8,-,N/A,,Mostly Cloudy,10,2013-11-02 11:15:00
7:34 AM,33.8,32.0,93,29.83,10.0,North,5.8,-,N/A,,Overcast,360,2013-11-02 11:34:00
7:55 AM,33.1,32.0,96,29.83,10.0,North,4.6,-,N/A,,Mostly Cloudy,10,2013-11-02 11:55:00
8:15 AM,33.4,32.4,96,29.85,10.0,NNW,3.5,-,N/A,,Overcast,340,2013-11-02 12:15:00
8:35 AM,33.6,32.4,95,29.86,10.0,North,4.6,-,N/A,,Overcast,350,2013-11-02 12:35:00
8:55 AM,33.8,32.4,94,29.86,10.0,North,5.8,-,N/A,,Overcast,10,2013-11-02 12:55:00
9:15 AM,34.9,32.0,89,29.87,10.0,North,5.8,-,N/A,,Mostly Cloudy,360,2013-11-02 13:15:00
9:35 AM,35.6,32.2,87,29.88,10.0,North,8.1,-,N/A,,Overcast,10,2013-11-02 13:35:00
9:55 AM,36.5,32.0,84,29.89,10.0,North,6.9,-,N/A,,Overcast,10,2013-11-02 13:55:00
10:14 AM,36.7,32.0,83,29.90,10.0,North,6.9,-,N/A,,Overcast,10,2013-11-02 14:14:00
10:35 AM,36.7,30.7,79,29.90,10.0,North,8.1,-,N/A,,Overcast,10,2013-11-02 14:35:00
10:55 AM,37.4,30.4,76,29.91,10.0,North,9.2,-,N/A,,Overcast,360,2013-11-02 14:55:00
11:14 AM,37.8,30.2,74,29.92,10.0,North,9.2,-,N/A,,Overcast,360,2013-11-02 15:14:00
11:35 AM,37.9,30.7,75,29.93,10.0,NNE,6.9,-,N/A,,Overcast,20,2013-11-02 15:35:00
11:55 AM,38.3,30.0,72,29.94,10.0,North,12.7,-,N/A,,Overcast,360,2013-11-02 15:55:00
12:14 PM,38.3,30.0,72,29.95,10.0,NNE,10.4,-,N/A,,Overcast,20,2013-11-02 16:14:00
12:35 PM,38.5,31.8,77,29.95,10.0,North,9.2,-,N/A,Rain,Light Rain,10,2013-11-02 16:35:00
12:55 PM,39.6,30.2,69,29.95,10.0,North,8.1,-,N/A,,Overcast,360,2013-11-02 16:55:00
1:15 PM,37.4,31.8,80,29.96,10.0,NNE,6.9,16.1,N/A,,Overcast,20,2013-11-02 17:15:00
1:34 PM,39.6,31.8,74,29.96,10.0,NE,12.7,16.1,N/A,,Overcast,50,2013-11-02 17:34:00
1:55 PM,37.4,32.5,83,29.97,10.0,North,6.9,-,N/A,,Overcast,350,2013-11-02 17:55:00
2:15 PM,40.8,32.2,71,29.96,10.0,NNE,8.1,-,N/A,,Mostly Cloudy,30,2013-11-02 18:15:00
2:34 PM,38.5,32.0,78,29.97,10.0,North,10.4,16.1,N/A,Rain,Light Rain,360,2013-11-02 18:34:00
2:55 PM,40.8,32.2,71,29.98,10.0,NNW,13.8,17.3,N/A,,Mostly Cloudy,340,2013-11-02 18:55:00
3:15 PM,39.9,32.0,73,29.98,10.0,North,4.6,-,N/A,,Mostly Cloudy,350,2013-11-02 19:15:00
3:34 PM,39.9,30.4,69,29.99,10.0,NNW,10.4,-,N/A,,Mostly Cloudy,340,2013-11-02 19:34:00
3:55 PM,39.4,29.3,67,30.00,10.0,NNW,6.9,-,N/A,,Overcast,340,2013-11-02 19:55:00
4:15 PM,39.0,29.1,68,30.00,10.0,North,5.8,-,N/A,,Overcast,350,2013-11-02 20:15:00
4:35 PM,39.0,29.1,68,30.01,10.0,NNW,9.2,-,N/A,,Overcast,340,2013-11-02 20:35:00
4:55 PM,38.8,28.8,67,30.02,10.0,North,8.1,-,N/A,,Overcast,350,2013-11-02 20:55:00
5:14 PM,38.7,28.9,68,30.03,10.0,North,6.9,-,N/A,,Overcast,360,2013-11-02 21:14:00
5:35 PM,38.5,29.3,70,30.03,10.0,North,5.8,-,N/A,,Overcast,360,2013-11-02 21:35:00
5:55 PM,38.3,29.5,71,30.04,10.0,North,4.6,-,N/A,,Overcast,10,2013-11-02 21:55:00
6:14 PM,37.9,28.6,69,30.05,10.0,NNE,8.1,-,N/A,,Overcast,20,2013-11-02 22:14:00
6:35 PM,37.4,27.9,68,30.06,10.0,NNE,9.2,-,N/A,,Overcast,20,2013-11-02 22:35:00
6:55 PM,36.7,27.1,68,30.06,10.0,NNE,8.1,-,N/A,,Overcast,20,2013-11-02 22:55:00
7:14 PM,36.0,26.6,69,30.07,10.0,NNE,4.6,-,N/A,,Overcast,20,2013-11-02 23:14:00
7:35 PM,34.5,26.2,72,30.08,10.0,North,4.6,-,N/A,,Overcast,10,2013-11-02 23:35:00
7:55 PM,33.6,26.6,75,30.09,10.0,North,3.5,-,N/A,,Overcast,360,2013-11-02 23:55:00
8:15 PM,33.6,27.0,77,30.09,10.0,NNE,3.5,-,N/A,,Overcast,20,2013-11-03 00:15:00
8:35 PM,33.3,27.3,79,30.10,10.0,NNE,3.5,-,N/A,,Overcast,20,2013-11-03 00:35:00
8:54 PM,33.3,27.3,79,30.11,10.0,Calm,Calm,-,N/A,,Overcast,0,2013-11-03 00:54:00
9:15 PM,33.1,27.5,80,30.11,10.0,Calm,Calm,-,N/A,,Overcast,0,2013-11-03 01:15:00
9:35 PM,32.9,28.0,82,30.11,10.0,Calm,Calm,-,N/A,,Overcast,0,2013-11-03 01:35:00
9:54 PM,32.2,28.2,85,30.12,10.0,Calm,Calm,-,N/A,,Overcast,0,2013-11-03 01:54:00
10:15 PM,32.2,27.9,84,30.13,10.0,Calm,Calm,-,N/A,,Overcast,0,2013-11-03 02:15:00
10:35 PM,31.1,28.6,90,30.13,10.0,Calm,Calm,-,N/A,,Overcast,0,2013-11-03 02:35:00
10:55 PM,31.5,28.0,87,30.14,10.0,Calm,Calm,-,N/A,,Overcast,0,2013-11-03 02:55:00
11:15 PM,31.6,28.0,87,30.15,10.0,Calm,Calm,-,N/A,,Overcast,0,2013-11-03 03:15:00
11:35 PM,31.8,28.0,86,30.15,10.0,Calm,Calm,-,N/A,,Overcast,0,2013-11-03 03:35:00
11:55 PM,30.2,28.2,92,30.16,10.0,Calm,Calm,-,N/A,,Overcast,0,2013-11-03 03:55:00